Home > Weather > Göttingen > Past weeks

Flag for Germany Past Weather in Göttingen, Lower Saxony, Germany — Yesterday and Last 2 Weeks

Now
68 °F

Partly sunny.


Feels Like: 68 °F
Forecast: 51 / 64 °F
Wind: 10 mph from South

Location: Kassel / Calden

Current Time: Jul 2, 2016 at 12:30:29 AM

Latest Report: Jul 1, 2016 at 9:20 PM


Visibility: N/A

Pressure: 29.95 "Hg

Humidity: 64%

Dew Point: 55 °F

Location of GöttingenLocation

Past Weather in Göttingen — Graph

°F

Göttingen Temperature Yesterday

Maximum temperature yesterday: 73 °F (at 1:50 PM)
Minimum temperature yesterday: 63 °F (at 7:20 AM)
Average temperature yesterday: 69 °F

High & Low Weather Summary for the Past Weeks

 TemperatureHumidityPressure
High90 °F (Jun 23, 3:50 PM)100% (Jun 17, 7:20 AM)30.24 "Hg (Jun 17, 7:20 AM)
Low50 °F (Jun 20, 7:20 AM)16% (Jun 28, 6:20 AM)29.59 "Hg (Jun 17, 7:20 AM)
Average66 °F70%30.03 "Hg
* Reported Jun 16 9:20 PM — Jul 1 9:20 PM, Göttingen, Weather by CustomWeather, © 2016

Note: Actual official high and low records may vary slightly from our data, if they occured in-between our weather recording intervals... More about our weather records

Advertising

Göttingen Weather History for the Previous 24 Hours

Scroll right to see more
 ConditionsComfort  
Time TempWeatherWind HumidityBarometerVisibility
9:20 PM
Fri, Jul 1
68 °FPartly sunny.10 mph64%29.95 "HgN/A
8:50 PM68 °FPartly sunny.9 mph69%29.95 "HgN/A
8:20 PM70 °FPartly sunny.9 mph64%29.95 "HgN/A
7:50 PM70 °FPartly sunny.10 mph64%29.95 "HgN/A
7:20 PM70 °FPartly sunny.13 mph64%29.95 "HgN/A
6:50 PM70 °FOvercast.12 mph64%29.95 "HgN/A
6:20 PM72 °FOvercast.14 mph61%29.95 "HgN/A
5:50 PM72 °FPartly sunny.15 mph61%29.95 "HgN/A
5:20 PM72 °FPartly sunny.12 mph65%29.95 "HgN/A
4:50 PM73 °FPartly sunny.14 mph61%29.95 "HgN/A
4:20 PM72 °FPartly sunny.15 mph61%29.95 "HgN/A
3:50 PM72 °FPartly sunny.13 mph65%29.95 "HgN/A
3:20 PM72 °FBroken clouds.9 mph65%29.95 "HgN/A
2:50 PM72 °FPartly sunny.13 mph61%29.95 "HgN/A
2:20 PM72 °FPartly sunny.12 mph61%29.95 "HgN/A
1:50 PM73 °FPartly sunny.15 mph57%29.95 "HgN/A
1:20 PM72 °FMore clouds than sun.12 mph61%29.98 "HgN/A
12:50 PM70 °FBroken clouds.16 mph60%29.98 "HgN/A
12:20 PM70 °FPartly sunny.12 mph69%29.98 "HgN/A
11:50 AM70 °FPartly sunny.10 mph69%29.98 "HgN/A
11:20 AM70 °FBroken clouds.14 mph64%29.98 "HgN/A
10:50 AM70 °FBroken clouds.10 mph69%29.98 "HgN/A
10:20 AM68 °FPartly sunny.9 mph73%29.98 "HgN/A
9:50 AM66 °FBroken clouds.12 mph78%29.98 "HgN/A
9:20 AM66 °FScattered clouds.8 mph78%29.98 "HgN/A
8:50 AM64 °FPartly sunny.10 mph78%29.98 "HgN/A
8:20 AM64 °FBroken clouds.6 mph78%29.98 "HgN/A
7:50 AM63 °FBroken clouds.6 mph88%29.98 "HgN/A
7:20 AM63 °FPartly sunny.8 mph83%29.95 "HgN/A
Weather by CustomWeather, © 2016

See weather overviewHow to use our weather pages